Flag for Poland Weather past 2 weeks in Wroclaw, Poland

Now
54 °F

Scattered clouds.


Feels Like: 49 °F
Forecast: 40 / 61 °F
Wind: 17 mph from Northwest

Location: Wroclaw Ii

Current Time: Sep 23, 2014 at 12:28:49 PM

Latest Report: Sep 23, 2014 at 12:00 PM


Visibility: N/A

Pressure: 30.01 "Hg

Humidity: 77%

Dew point: 46 °F

Location of WroclawLocation

Historic Weather in Wroclaw — Graph

°F

Wroclaw temperature yesterday

Maximum temperature yesterday: 61 °F (at 12:00 AM)
Minimum temperature yesterday: 50 °F (at 9:00 PM)
Average temperature yesterday: 56 °F

Past Weeks' High & Low Weather Summary

 TemperatureHumidityPressure
High77 °F (Sep 8, 4:30 PM)94% (Sep 8, 11:00 PM)30.15 "Hg (Sep 8, 11:00 PM)
Low50 °F (Sep 22, 9:00 PM)47% (Sep 18, 2:30 PM)29.77 "Hg (Sep 21, 11:30 PM)
Average63 °F80%30.00 "Hg
* Reported Sep 8 11:00 AM — Sep 23 11:30 AM, Wroclaw, Weather by CustomWeather, © 2014

Note: Actual official high and low records may vary slightly from our data, if they occured in-between our weather recording intervals... More about our weather records

Advertising

Wroclaw weather history for previous 24 hours

 ConditionsComfort  
Time TempWeatherWind HumidityBarometerVisibility
11:30 AM
Sep 23
54 °FBroken clouds.17 mph88%29.98 "HgN/A
11:00 AM52 °FBroken clouds.14 mph88%29.98 "HgN/A
10:30 AM52 °FLight rain. Fog.18 mph88%29.98 "Hg2 mi
10:00 AM52 °FLight rain. Fog.18 mph88%29.95 "Hg3 mi
9:30 AM52 °FLight rain. Fog.17 mph88%29.95 "Hg2 mi
9:00 AM52 °FLight rain. Partly sunny.17 mph88%29.92 "Hg6 mi
8:30 AM52 °FLight rain. Partly sunny.17 mph88%29.92 "Hg5 mi
8:00 AM52 °FLight rain. Partly sunny.16 mph88%29.92 "Hg4 mi
7:30 AM52 °FLight rain. Fog.16 mph88%29.89 "Hg3 mi
7:00 AM52 °FLight rain. Fog.16 mph88%29.89 "Hg3 mi
6:30 AM52 °FLight rain. Passing clouds.16 mph88%29.89 "HgN/A
6:00 AM52 °FPartly cloudy.15 mph88%29.86 "HgN/A
5:30 AM52 °FLight rain. Passing clouds.15 mph88%29.86 "Hg4 mi
5:00 AM52 °FLight rain. Passing clouds.14 mph88%29.86 "Hg3 mi
4:30 AM52 °FLight rain. Passing clouds.12 mph88%29.86 "HgN/A
4:00 AM52 °FDrizzle. Low clouds.9 mph88%29.86 "HgN/A
3:30 AM52 °FPassing clouds.10 mph88%29.86 "HgN/A
3:00 AM50 °FPartly cloudy.9 mph94%29.86 "HgN/A
2:30 AM50 °FPassing clouds.9 mph94%29.86 "HgN/A
2:00 AM50 °FPassing clouds.10 mph88%29.86 "HgN/A
1:30 AM52 °FPassing clouds.13 mph82%29.86 "HgN/A
1:00 AM52 °FPassing clouds.12 mph82%29.86 "HgN/A
12:30 AM52 °FPassing clouds.12 mph82%29.86 "HgN/A
12:00 AM50 °FPassing clouds.12 mph88%29.86 "HgN/A
11:30 PM
Sep 22
50 °FPassing clouds.12 mph82%29.86 "HgN/A
11:00 PM50 °FClear.10 mph82%29.86 "Hg10 mi
10:30 PM50 °FClear.12 mph82%29.86 "Hg10 mi
10:00 PM50 °FClear.12 mph82%29.86 "Hg10 mi
9:30 PM50 °FPassing clouds.14 mph82%29.86 "HgN/A
9:00 PM50 °FClear.12 mph82%29.83 "Hg10 mi
8:30 PM52 °FClear.12 mph77%29.83 "Hg10 mi
8:00 PM52 °FClear.12 mph72%29.83 "Hg10 mi
7:30 PM52 °FSunny.9 mph72%29.83 "Hg10 mi
7:00 PM54 °FPassing clouds.15 mph67%29.83 "HgN/A
6:30 PM55 °FScattered clouds.15 mph67%29.80 "HgN/A
6:00 PM57 °FPassing clouds.14 mph67%29.80 "HgN/A
5:30 PM59 °FPassing clouds.16 mph63%29.80 "HgN/A
5:00 PM59 °FPassing clouds.15 mph59%29.77 "HgN/A
4:30 PM59 °FPassing clouds.16 mph68%29.77 "HgN/A
4:00 PM61 °FPassing clouds.20 mph59%29.77 "HgN/A
3:30 PM61 °FPassing clouds.15 mph59%29.77 "HgN/A
3:00 PM61 °FScattered clouds.14 mph59%29.77 "HgN/A
2:30 PM61 °FPassing clouds.14 mph63%29.77 "HgN/A
2:00 PM59 °FPassing clouds.14 mph63%29.80 "HgN/A
1:30 PM59 °FScattered clouds.17 mph63%29.80 "HgN/A
1:00 PM59 °FScattered clouds.13 mph68%29.80 "HgN/A
12:30 PM59 °FPassing clouds.12 mph72%29.80 "HgN/A
12:00 PM57 °FScattered clouds.14 mph77%29.80 "HgN/A
Weather by CustomWeather, © 2014

See weather overviewHow to use our weather pages